User: anonymous   Login
Location: Unspecified
(0.0000°N, 0.0000°E)
Time: 22:23:37
(UTC+00:00)
Language:

FLOCK 48E 9 - Orbit

View from above orbital plane
View from above orbital plane
View from above satellite
View from above satellite

Ground track
Ground track

The orbit is defined by the following mean orbital elements,

1 60514U          26145.15948184 +.00000000 +00000-0 +39065-3 0 00003
2 60514  97.3790 229.2212 0003137  52.6416 307.5115 15.40009754    08
Epoch (UTC): 25 May 2026 03:49:39
Eccentricity: 0.0003137
inclination: 97.3790°
perigee height: 444 km
apogee height: 448 km
right ascension of ascending node: 229.2212°
argument of perigee: 52.6416°
revolutions per day: 15.40009754
mean anomaly at epoch: 307.5115°

The dashed part of the orbit path shows where the satellite is in the earth's shadow,  

DLR